FW9289 Weather Reports


time (UTC)temp
F
wind
direction
speed
knots
gust
knots
rain 1hr
in
rain 24hr
in
rain mn
in
humidity
%
barometer
mb
20260503200056 78 106 0.9 7.0 0.00 0.00 0.00 45 1012.6
20260503195543 78 235 1.7 7.0 0.00 0.00 0.00 44 1012.8
20260503195041 79 277 1.7 3.5 0.00 0.00 0.00 44 1012.9
20260503194551 80 24 0.0 5.2 0.00 0.00 0.00 45 1013.0
20260503194041 79 0 0.9 6.1 0.00 0.00 0.00 46 1013.1
20260503193542 78 55 1.7 7.0 0.00 0.00 0.00 47 1013.1
20260503193059 78 44 1.7 7.0 0.00 0.00 0.00 50 1013.2
20260503192542 78 61 0.9 3.5 0.00 0.00 0.00 48 1013.3
20260503192043 78 95 1.7 3.5 0.00 0.00 0.00 49 1013.4
20260503191550 77 98 0.9 3.5 0.00 0.00 0.00 51 1013.5
20260503191040 76 102 1.7 4.3 0.00 0.00 0.00 52 1013.5
20260503190543 76 0 1.7 7.8 0.00 0.00 0.00 54 1013.5
20260503190054 75 92 1.7 7.8 0.00 0.00 0.00 54 1013.6
20260503185544 75 198 3.5 7.8 0.00 0.00 0.00 55 1013.7
20260503185046 76 63 2.6 6.1 0.00 0.00 0.00 54 1013.8
20260503184604 76 80 0.0 6.1 0.00 0.00 0.00 56 1013.7
20260503184043 74 111 1.7 6.1 0.00 0.00 0.00 56 1013.8
20260503183543 75 90 1.7 4.3 0.00 0.00 0.00 55 1014.0
20260503183107 75 77 0.9 5.2 0.00 0.00 0.00 59 1013.9
20260503182543 74 95 0.9 5.2 0.00 0.00 0.00 57 1013.9
20260503182041 74 94 1.7 5.2 0.00 0.00 0.00 55 1014.0
20260503181601 74 100 0.9 4.3 0.00 0.00 0.00 57 1013.9
20260503181043 74 85 1.7 5.2 0.00 0.00 0.00 56 1014.0
20260503180541 74 11 0.0 5.2 0.00 0.00 0.00 55 1014.0
20260503180055 73 175 1.7 5.2 0.00 0.00 0.00 53 1014.0
20260503175545 73 105 0.9 3.5 0.00 0.00 0.00 54 1014.1
20260503175043 72 61 0.9 5.2 0.00 0.00 0.00 56 1014.1
20260503174551 72 76 0.9 6.1 0.00 0.00 0.00 56 1014.1
20260503174041 72 315 1.7 6.1 0.00 0.00 0.00 55 1014.1
20260503173543 72 120 0.9 6.1 0.00 0.00 0.00 57 1014.1
20260503173059 72 174 0.9 6.1 0.00 0.00 0.00 58 1014.2
20260503172544 71 213 1.7 6.1 0.00 0.00 0.00 60 1014.3
20260503172042 71 306 1.7 6.1 0.00 0.00 0.00 57 1014.1
20260503171549 72 61 0.9 2.6 0.00 0.00 0.00 57 1014.1
20260503171040 72 221 0.0 0.0 0.00 0.00 0.00 58 1014.3
20260503170544 71 0 0.0 0.0 0.00 0.00 0.00 57 1014.2
20260503150541 51 0 0.0 0.0 0.00 0.00 0.00 99 1015.0
20260503131044 47 0 0.0 0.0 0.00 0.00 0.00 98 1015.0
20260503130543 47 0 0.0 0.0 0.00 0.00 0.00 98 1015.0
20260503110543 49 0 0.0 0.0 0.00 0.00 0.00 98 1015.4
20260503081627 52 0 0.0 0.0 0.00 0.00 0.00 96 1015.7
20260503081045 52 0 0.0 0.0 0.00 0.00 0.00 96 1015.7
20260503080543 52 0 0.0 0.0 0.00 0.00 0.00 96 1015.6
20260503080110 52 0 0.0 0.0 0.00 0.00 0.00 96 1015.6
20260503072544 53 0 0.0 0.0 0.00 0.00 0.00 96 1015.5
20260503072044 53 0 0.0 0.0 0.00 0.00 0.00 95 1015.5
20260503071549 53 0 0.0 0.0 0.00 0.00 0.00 96 1015.5
20260503071045 53 0 0.0 0.0 0.00 0.00 0.00 96 1015.5
20260503070546 53 0 0.0 0.0 0.00 0.00 0.00 95 1015.5
20260503055043 55 0 0.0 0.0 0.00 0.00 0.00 94 1015.4
20260503054554 55 0 0.0 0.0 0.00 0.00 0.00 94 1015.4
20260503054043 56 0 0.0 0.0 0.00 0.00 0.00 94 1015.4
20260503053542 56 0 0.0 0.0 0.00 0.00 0.00 94 1015.4
20260503053048 56 0 0.0 0.0 0.00 0.00 0.00 93 1015.5
20260503052545 56 0 0.0 0.0 0.00 0.00 0.00 93 1015.4
20260503052043 56 0 0.0 0.0 0.00 0.00 0.00 93 1015.5
20260503051548 57 0 0.0 0.0 0.00 0.00 0.00 93 1015.6
20260503051044 57 0 0.0 0.0 0.00 0.00 0.00 93 1015.4
20260503050545 57 0 0.0 0.0 0.00 0.00 0.00 92 1015.4
20260503050055 57 0 0.0 0.0 0.00 0.00 0.00 92 1015.4
20260503045545 57 0 0.0 0.0 0.00 0.00 0.00 92 1015.5
20260503045043 58 0 0.0 0.0 0.00 0.00 0.00 92 1015.5
20260503044552 58 0 0.0 0.0 0.00 0.00 0.00 92 1015.3
20260503044045 58 0 0.0 0.0 0.00 0.00 0.00 92 1015.4
20260503043543 58 0 0.0 0.0 0.00 0.00 0.00 92 1015.2
20260503043050 58 0 0.0 0.0 0.00 0.00 0.00 91 1015.2
20260503042543 59 0 0.0 0.0 0.00 0.00 0.00 91 1015.1
20260503042044 59 0 0.0 0.0 0.00 0.00 0.00 91 1015.1
20260503041549 59 0 0.0 0.0 0.00 0.00 0.00 90 1015.0
20260503041043 59 0 0.0 0.0 0.00 0.00 0.00 90 1014.9
20260503040545 60 0 0.0 0.0 0.00 0.00 0.00 90 1014.8
20260503040051 60 0 0.0 0.0 0.00 0.00 0.00 90 1014.7
20260503035547 60 0 0.0 0.0 0.00 0.00 0.00 89 1014.6
20260503035047 60 0 0.0 0.0 0.00 0.00 0.00 89 1014.6
20260503034553 61 0 0.0 0.0 0.00 0.00 0.00 88 1014.5
20260503034042 61 0 0.0 0.0 0.00 0.00 0.00 88 1014.3
20260503033546 61 0 0.0 0.0 0.00 0.00 0.00 87 1014.3
20260503033109 62 0 0.0 0.0 0.00 0.00 0.00 87 1014.2
20260503032544 62 0 0.0 0.0 0.00 0.00 0.00 86 1014.1
20260503032048 62 0 0.0 0.0 0.00 0.00 0.00 86 1014.2
20260503031556 63 0 0.0 0.0 0.00 0.00 0.00 85 1014.1
20260503031043 63 0 0.0 0.0 0.00 0.00 0.00 85 1014.0
20260503030545 63 0 0.0 0.0 0.00 0.00 0.00 84 1014.0
20260503030057 64 0 0.0 0.0 0.00 0.00 0.00 83 1013.7
20260503025544 64 0 0.0 0.0 0.00 0.00 0.00 84 1013.7
20260503025044 64 0 0.0 0.0 0.00 0.00 0.00 83 1013.6
20260503024607 64 0 0.0 0.0 0.00 0.00 0.00 83 1013.6
20260503024045 65 0 0.0 1.7 0.00 0.00 0.00 81 1013.6
20260503023547 66 0 0.0 1.7 0.00 0.00 0.00 81 1013.4
20260503023046 66 0 0.0 1.7 0.00 0.00 0.00 79 1013.4
20260503022614 66 200 0.9 1.7 0.00 0.00 0.00 79 1013.4
20260503022046 67 0 0.0 1.7 0.00 0.00 0.00 78 1013.4
20260503021559 67 0 0.0 1.7 0.00 0.00 0.00 77 1013.4
20260503021043 68 200 0.0 1.7 0.00 0.00 0.00 76 1013.4
20260503020545 68 200 0.0 1.7 0.00 0.00 0.00 75 1013.4
20260503020050 69 0 0.0 3.5 0.00 0.00 0.00 73 1013.3
20260503015548 70 200 0.0 4.3 0.00 0.00 0.00 70 1013.3
20260503015045 72 200 1.7 4.3 0.00 0.00 0.00 63 1013.3
20260503014552 70 0 0.0 4.3 0.00 0.00 0.00 70 1013.3
20260503014044 71 154 0.9 4.3 0.00 0.00 0.00 69 1013.2
20260503013546 71 199 0.9 2.6 0.00 0.00 0.00 66 1013.3
20260503013049 72 0 0.0 3.5 0.00 0.00 0.00 67 1013.1
20260503012549 72 88 0.0 3.5 0.00 0.00 0.00 68 1013.2
20260503012041 72 156 1.7 3.5 0.00 0.00 0.00 64 1013.2
20260503011557 72 89 0.0 4.3 0.00 0.00 0.00 65 1013.1
20260503011043 73 43 0.9 4.3 0.00 0.00 0.00 64 1013.2
20260503010544 74 116 2.6 6.1 0.00 0.00 0.00 60 1013.1
20260503010048 75 266 1.7 6.1 0.00 0.00 0.00 60 1013.1
20260503005544 74 0 0.9 3.5 0.00 0.00 0.00 62 1013.2
20260503005045 74 56 0.0 4.3 0.00 0.00 0.00 63 1013.2
20260503004554 75 94 1.7 4.3 0.00 0.00 0.00 59 1013.2
20260503004044 75 170 0.0 3.5 0.00 0.00 0.00 61 1013.3
20260503003545 75 99 0.9 3.5 0.00 0.00 0.00 59 1013.3
20260503003055 75 164 0.9 3.5 0.00 0.00 0.00 58 1013.3
20260503002547 75 0 0.9 3.5 0.00 0.00 0.00 58 1013.3
20260503002045 75 137 0.9 3.5 0.00 0.00 0.00 59 1013.4
20260503001559 75 186 0.9 5.2 0.00 0.00 0.00 57 1013.4
20260503001045 76 79 0.9 6.1 0.00 0.00 0.00 57 1013.4
20260503000544 76 256 1.7 6.1 0.00 0.00 0.00 57 1013.5
20260503000104 76 80 0.9 7.8 0.00 0.00 0.00 57 1013.5
20260502235544 76 9 1.7 7.8 0.00 0.00 0.00 56 1013.4
20260502235044 76 289 0.0 3.5 0.00 0.00 0.00 59 1013.7
20260502234608 75 68 1.7 5.2 0.00 0.00 0.00 57 1013.6
20260502234045 75 0 0.9 5.2 0.00 0.00 0.00 56 1013.5
20260502233545 76 294 0.9 5.2 0.00 0.00 0.00 55 1013.7
20260502233109 75 0 1.7 5.2 0.00 0.00 0.00 55 1013.7
20260502232543 76 123 0.0 4.3 0.00 0.00 0.00 58 1013.8
20260502232044 75 202 0.9 5.2 0.00 0.00 0.00 56 1013.8
20260502231604 75 146 1.7 5.2 0.00 0.00 0.00 55 1013.8
20260502231046 75 281 1.7 5.2 0.00 0.00 0.00 55 1013.8
20260502230543 76 347 0.9 5.2 0.00 0.00 0.00 55 1013.9
20260502230053 75 176 0.0 6.1 0.00 0.00 0.00 55 1013.9
20260502225548 75 98 1.7 6.1 0.00 0.00 0.00 55 1014.2
20260502225045 75 94 0.9 10.4 0.00 0.00 0.00 55 1014.1
20260502224546 74 117 2.6 10.4 0.00 0.00 0.00 56 1014.3
20260502224045 75 146 2.6 10.4 0.00 0.00 0.00 56 1014.4
20260502223544 76 199 0.9 3.5 0.00 0.00 0.00 55 1014.4
20260502223055 75 0 0.0 4.3 0.00 0.00 0.00 57 1014.5
20260502222545 74 178 0.9 5.2 0.00 0.00 0.00 57 1014.5
20260502222042 74 0 0.9 5.2 0.00 0.00 0.00 56 1014.6
20260502221601 74 211 0.0 3.5 0.00 0.00 0.00 56 1014.6
20260502221044 74 0 0.9 3.5 0.00 0.00 0.00 57 1014.7
20260502220543 74 0 0.9 5.2 0.00 0.00 0.00 57 1014.7
20260502220051 74 88 1.7 5.2 0.00 0.00 0.00 57 1014.8
20260502215542 74 97 0.0 3.5 0.00 0.00 0.00 59 1014.9
20260502215044 73 82 0.9 7.0 0.00 0.00 0.00 57 1015.0
20260502214554 73 109 0.9 7.0 0.00 0.00 0.00 57 1014.9
20260502214045 73 127 1.7 7.8 0.00 0.00 0.00 57 1014.9
20260502213543 73 144 0.9 7.8 0.00 0.00 0.00 58 1015.1
20260502213054 72 188 2.6 7.0 0.00 0.00 0.00 59 1015.1
20260502212544 73 132 0.0 3.5 0.00 0.00 0.00 60 1015.2
20260502212044 72 78 0.9 7.8 0.00 0.00 0.00 59 1015.1
20260502211554 72 170 0.9 7.8 0.00 0.00 0.00 60 1015.3
20260502211047 72 80 2.6 7.8 0.00 0.00 0.00 60 1015.3
20260502210545 72 244 1.7 6.1 0.00 0.00 0.00 59 1015.3
20260502210049 72 88 1.7 3.5 0.00 0.00 0.00 60 1015.4
20260502205545 72 196 0.9 3.5 0.00 0.00 0.00 62 1015.3
20260502205043 72 122 0.9 2.6 0.00 0.00 0.00 59 1015.4
20260502204552 71 107 0.9 6.1 0.00 0.00 0.00 60 1015.4
20260502204044 71 200 0.9 6.1 0.00 0.00 0.00 60 1015.5
20260502203545 70 81 2.6 6.1 0.00 0.00 0.00 59 1015.6
20260502203055 70 89 2.6 5.2 0.00 0.00 0.00 58 1015.5
20260502202541 71 360 1.7 5.2 0.00 0.00 0.00 58 1015.6
20260502202041 71 61 0.0 5.2 0.00 0.00 0.00 59 1015.6
20260502201554 71 110 0.9 5.2 0.00 0.00 0.00 57 1015.7
20260502201041 72 0 0.0 5.2 0.00 0.00 0.00 60 1015.7
20260502200547 70 67 1.7 6.1 0.00 0.00 0.00 62 1015.7